User: anonymous   Login
Location: Unspecified
(0.0000°N, 0.0000°E)
Time: 20:18:08
(UTC+00:00)
Language:

STRELA 3 - Orbit

View from above orbital plane
View from above orbital plane
View from above satellite
View from above satellite

Ground track
Ground track

The orbit data is extracted from the following two-line orbital elements,

1 37153U 10043B   18017.45350183  .00000036  00000-0  19751-3 0  9998
2 37153  82.4556 192.3601 0006444 273.2734  86.7604 12.40727818333379
Epoch (UTC): 17 January 2018 10:53:02
Eccentricity: 0.0006444
inclination: 82.4556°
perigee height: 1498 km
apogee height: 1508 km
right ascension of ascending node: 192.3601°
argument of perigee: 273.2734°
revolutions per day: 12.40727818
mean anomaly at epoch: 86.7604°
orbit number at epoch: 33337

The dashed part of the orbit path shows where the satellite is in the earth's shadow,  

DLR